Prescott, AZ

5:21 AM MST on February 23, 2017 (GMT -0700)
Love

Weather History for KPRC - December, 2014

Change the Weather History Date:

Sunday, December 14, 2014

  Actual Average Record
Temperature  
Mean Temperature 38 °F 38 °F  
Max Temperature 48 °F 51 °F 68 °F (2010)
Min Temperature 28 °F 25 °F 10 °F (1949)
Degree Days  
Heating Degree Days 27    
Month to date heating degree days 262  
Since 1 July heating degree days 919  
Cooling Degree Days 0    
Month to date cooling degree days 0  
Year to date cooling degree days 1039  
Moisture  
Dew Point 26 °F    
Average Humidity 68    
Maximum Humidity 85    
Minimum Humidity 37    
Precipitation  
Precipitation 0.00 in 0.03 in 1.07 in (1967)
Month to date precipitation 1.81 0.42  
Year to date precipitation 12.03 13.43  
Sea Level Pressure  
Sea Level Pressure 30.05 in    
Wind  
Wind Speed 4 mph (WSW)    
Max Wind Speed 12 mph    
Max Gust Speed 14 mph    
Visibility 10 miles    
Events      
T = Trace of Precipitation, MM = Missing Value Source: NWS Daily Summary

Daily Weather History Graph

Daily Weather History Graph

Search for Another Location

Airport or City:

Trip Planner

Search our weather history database for the weather conditions in past years. The results will help you decide how hot, cold, wet, or windy it might be!

Date:

Astronomy

Dec. 14, 2014 Rise Set
Actual Time 7:28 AM MST 5:20 PM MST
Civil Twilight 7:00 AM MST 5:48 PM MST
Nautical Twilight 6:29 AM MST 6:19 PM MST
Astronomical Twilight 5:58 AM MST 6:50 PM MST
Moon 12:11 AM MST (12/14) 12:37 PM MST (12/14)
Length of Visible Light 10h 47m
Length of Day
9h 51m
Waning Gibbous, 48% of the Moon is Illuminated
Dec 14
Waning Gibbous
Dec 21
New
Dec 28
First Quarter
Jan 4
Full
Jan 13
Last Quarter

Hourly Weather History & Observations

Time (MST) Temp. Windchill Dew Point Humidity Pressure Visibility Wind Dir Wind Speed Gust Speed Precip Events Conditions
12:43 AM 36.0 °F 31.1 °F 28.9 °F 76% 30.06 in 10.0 mi West 5.8 mph - N/A   Scattered Clouds
12:53 AM 36.0 °F 31.1 °F 28.9 °F 76% 30.02 in 10.0 mi West 5.8 mph - N/A   Clear
1:53 AM 34.0 °F 31.0 °F 28.0 °F 79% 30.01 in 10.0 mi WSW 3.5 mph - N/A   Clear
2:53 AM 33.1 °F 28.7 °F 28.0 °F 82% 30.01 in 10.0 mi WSW 4.6 mph - N/A   Mostly Cloudy
3:53 AM 34.0 °F 28.8 °F 28.0 °F 79% 30.01 in 10.0 mi WSW 5.8 mph - N/A   Overcast
4:53 AM 30.9 °F 27.5 °F 26.1 °F 82% 30.03 in 10.0 mi SW 3.5 mph - N/A   Partly Cloudy
5:53 AM 28.9 °F 22.8 °F 25.0 °F 85% 30.03 in 10.0 mi SSW 5.8 mph - N/A   Clear
6:53 AM 28.9 °F 21.1 °F 25.0 °F 85% 30.05 in 10.0 mi South 8.1 mph - N/A   Clear
7:53 AM 28.9 °F 21.1 °F 24.1 °F 82% 30.06 in 10.0 mi South 8.1 mph - N/A   Clear
8:53 AM 34.0 °F - 27.0 °F 75% 30.07 in 10.0 mi Calm Calm - N/A   Clear
9:53 AM 39.0 °F 36.8 °F 28.9 °F 67% 30.09 in 10.0 mi NNW 3.5 mph - N/A   Scattered Clouds
10:53 AM 39.9 °F 37.8 °F 28.9 °F 65% 30.09 in 10.0 mi NNW 3.5 mph - N/A   Scattered Clouds
11:53 AM 43.0 °F 38.8 °F 27.0 °F 53% 30.06 in 10.0 mi WNW 6.9 mph - N/A   Scattered Clouds
12:53 PM 44.1 °F 42.5 °F 25.0 °F 47% 30.03 in 10.0 mi Variable 3.5 mph - N/A   Clear
1:53 PM 46.0 °F 41.9 °F 21.9 °F 39% 30.01 in 10.0 mi NW 8.1 mph - N/A   Clear
2:53 PM 46.9 °F - 24.1 °F 41% 30.01 in 10.0 mi Calm Calm - N/A   Partly Cloudy
3:53 PM 46.9 °F - 21.9 °F 37% 30.01 in 10.0 mi Variable 3.5 mph - N/A   Clear
4:53 PM 44.1 °F - 25.0 °F 47% 30.02 in 10.0 mi Calm Calm - N/A   Clear
5:53 PM 41.0 °F - 27.0 °F 57% 30.06 in 10.0 mi Calm Calm - N/A   Clear
6:53 PM 37.9 °F 32.7 °F 28.0 °F 68% 30.08 in 10.0 mi South 6.9 mph - N/A   Clear
7:53 PM 37.0 °F - 28.0 °F 70% 30.09 in 10.0 mi Calm Calm - N/A   Clear
8:53 PM 37.0 °F 33.3 °F 28.9 °F 73% 30.08 in 10.0 mi SE 4.6 mph - N/A   Clear
9:53 PM 33.1 °F 30.0 °F 26.1 °F 75% 30.09 in 10.0 mi SSW 3.5 mph - N/A   Clear
10:53 PM 30.9 °F 27.5 °F 25.0 °F 79% 30.11 in 10.0 mi SSW 3.5 mph - N/A   Clear
11:53 PM 30.9 °F 23.5 °F 25.0 °F 79% 30.10 in 10.0 mi SSW 8.1 mph - N/A   Clear